Terminal Aerodrome Forecast
Issued by NWS Wilmington, OH

Current Version | Previous Version | Graphics & Text | Print | Product List | Glossary On
Versions: 1 2 3 4 5 6 7 8 9 10 11 12 13 14 15 16 17 18 19 20 21 22 23 24 25
092
FTUS41 KILN 222058 AAA
TAFCMH
TAF AMD
KCMH 222058Z 2221/2318 09011KT P6SM BKN020
     FM230100 07008KT P6SM OVC012
     FM230700 10004KT 5SM BR VCSH OVC008
     FM231100 12004KT 2SM SHRA BR OVC008
     FM231300 15006KT 2SM SHRA BR OVC008
     FM231700 21009KT 4SM -SHRA BR OVC008=

USA.gov is the U.S. government's official web portal to all federal, state and local government web resources and services.